BEIDOU-3 G3 (C61)

Last updated on Wed Aug 26 2026 00:04:16 GMT+0000 (Coordinated Universal Time)

1 45807U 20040A 26237.56709694 -.00000356 00000+0 00000+0 0 9999 2 45807 2.6125 67.4486 0002015 299.1386 281.8929 1.00267605 22766
UTC large
Height (km)
Speed (km/s)
/
Latitude / Longitude
Inclination (degrees)
Orbital Period (minutes)
Azimuth
Elevation
Range (km)
Doppler Factor

Next 0 passes for location: London (51.5072 / 0.1276)

No passes found over London.
BEIDOU-3 G3 (C61)